(198548) = 1999 VT228 = 2004 XB132

Discovered at Socorro on 2004-12-11 by LINEAR.

Orbit

Orbit type: Main Belt

Note: WebGL enabled browser required.

epoch2024-03-31.0
epoch JD2460400.5
perihelion date2023-01-30.04411
perihelion JD2459974.54411
argument of perihelion (°)102.17726
ascending node (°)288.67464
inclination (°)11.93152
eccentricity0.2060510
perihelion distance (AU)2.2126107
Tisserand w.r.t. Jupiter3.3
ΔV w.r.t. Earth (km/sec)10.0
semimajor axis (AU)2.7868425
mean anomaly (°)90.24015
mean daily motion (°/day)0.21185330
aphelion distance (AU)3.361
period (years)4.65
P-vector [x]0.83848908
P-vector [y]0.38391272
P-vector [z]0.38671318
Q-vector [x]-0.50850343
Q-vector [y]0.80634012
Q-vector [z]0.30205939
absolute magnitude16.25
phase slope0.15
uncertainty0
referenceMPEC 2024-E73
observations used412
oppositions14
arc length (days)8909
first opposition used1999
last opposition used2024
residual rms (arc-secs)0.60
perturbers coarse indicatorM-v
perturbers precise indicator003Ek
first observation date used1999-10-14.0
last observation date used2024-03-05.0
computer nameMPCLINUX
JD of orbit computation2456700.458709
perihelion JD uncertainty (days)2.0330E-04
argument of perihelion uncertainty (°)7.6988E-05
ascending node uncertainty (°)4.8863E-05
inclination uncertainty (°)1.0950E-05
eccentricity uncertainty 1.0702E-07
perihelion distance uncertainty (AU)2.9671E-07
Minimum Orbit Intersection Distances (in AU)
for orbit epoch: 2460400.5, reference: E2024-E73
Mercury1.89578
Venus1.5199
Earth1.25544
Mars0.80698
Jupiter2.22599
Saturn6.34887
Uranus15.2918
Neptune27.4027

Observations

419 total observations over interval: 1999 10 14.23963 – 2024 03 05.137249
These data are available for download (format description).

Date (UT) J2000 RA J2000 Dec Magn Location Ref
1999 10 14.23963 01 48 00.04 +33 19 58.4 18.3   704 – Lincoln Laboratory ETS, New Mexico MPS 123597
1999 10 14.25511 01 47 59.22 +33 19 56.0 18.4   704 – Lincoln Laboratory ETS, New Mexico MPS 123597
1999 10 14.27067 01 47 58.36 +33 19 53.3 18.9   704 – Lincoln Laboratory ETS, New Mexico MPS 123597
1999 10 14.28606 01 47 57.53 +33 19 51.5 18.7   704 – Lincoln Laboratory ETS, New Mexico MPS 123597
1999 10 14.30148 01 47 56.77 +33 19 48.8 18.8   704 – Lincoln Laboratory ETS, New Mexico MPS 123597
1999 11 03.22875 01 30 53.29 +31 26 06.6 19.0   704 – Lincoln Laboratory ETS, New Mexico MPS 27684
1999 11 03.24506 01 30 52.48 +31 25 58.4 19.7   704 – Lincoln Laboratory ETS, New Mexico MPS 27684
1999 11 03.27771 01 30 50.88 +31 25 41.2 18.6   704 – Lincoln Laboratory ETS, New Mexico MPS 27684
1999 11 03.29405 01 30 49.99 +31 25 33.4 19.6   704 – Lincoln Laboratory ETS, New Mexico MPS 27684
1999 11 10.24515 01 26 04.24 +30 23 41.5 18.7 R 703 – Catalina Sky Survey MPS 27684
1999 11 10.25746 01 26 03.77 +30 23 34.8 19.3 R 703 – Catalina Sky Survey MPS 27684
1999 11 10.26982 01 26 03.24 +30 23 26.8 18.5 R 703 – Catalina Sky Survey MPS 27684
1999 11 10.28213 01 26 02.76 +30 23 20.7 18.9 R 703 – Catalina Sky Survey MPS 27684
2003 07 21.94427 19 54 41.49 -17 50 16.8 19.2 R 599 – Campo Imperatore-CINEOS MPS 123597
2003 07 21.96443 19 54 40.25 -17 50 14.8 19.4 R 599 – Campo Imperatore-CINEOS MPS 123597
2003 07 21.97422 19 54 39.57 -17 50 13.9 19.3 R 599 – Campo Imperatore-CINEOS MPS 123597
2004 12 11.34397 06 15 33.42 +30 45 08.1 20.1   704 – Lincoln Laboratory ETS, New Mexico MPS 122840
2004 12 11.35719 06 15 32.53 +30 45 04.2 19.6   704 – Lincoln Laboratory ETS, New Mexico MPS 122840
2004 12 11.36988 06 15 31.71 +30 45 01.4 19.8   704 – Lincoln Laboratory ETS, New Mexico MPS 122840
2004 12 11.38258 06 15 30.80 +30 44 57.4 19.7   704 – Lincoln Laboratory ETS, New Mexico MPS 122840
2004 12 17.24428 06 09 01.91 +30 17 21.7 19.6   704 – Lincoln Laboratory ETS, New Mexico MPS 122840
2004 12 17.25887 06 09 00.85 +30 17 16.7 19.2   704 – Lincoln Laboratory ETS, New Mexico MPS 122840
2004 12 17.27245 06 08 59.87 +30 17 12.9 19.6   704 – Lincoln Laboratory ETS, New Mexico MPS 122840
2004 12 17.28613 06 08 58.90 +30 17 10.0 20.1   704 – Lincoln Laboratory ETS, New Mexico MPS 122840
2004 12 17.29969 06 08 57.89 +30 17 03.9 20.0   704 – Lincoln Laboratory ETS, New Mexico MPS 122840
2004 12 19.22611 06 06 47.87 +30 07 07.8 18.4 V 691 – Steward Observatory, Kitt Peak-Spacewatch MPS 122840
2004 12 19.25462 06 06 45.83 +30 06 59.1 19.2 V 691 – Steward Observatory, Kitt Peak-Spacewatch MPS 122840
2004 12 19.27984 06 06 44.06 +30 06 51.3 19.2 V 691 – Steward Observatory, Kitt Peak-Spacewatch MPS 122840
2005 01 16.22603 05 40 28.84 +27 13 58.0 19.8   704 – Lincoln Laboratory ETS, New Mexico MPS 124777
2005 01 16.24153 05 40 28.22 +27 13 51.7 20.1   704 – Lincoln Laboratory ETS, New Mexico MPS 124777
2005 01 16.25523 05 40 27.69 +27 13 46.4 19.9   704 – Lincoln Laboratory ETS, New Mexico MPS 124777
2008 07 30.37792 22 48 08.20 +05 55 15.7 19.7 V 703 – Catalina Sky Survey MPS 252934
2008 07 30.38517 22 48 07.95 +05 55 19.5 20.0 V 703 – Catalina Sky Survey MPS 252934
2008 07 30.39243 22 48 07.77 +05 55 21.0 19.5 V 703 – Catalina Sky Survey MPS 252934
2008 07 30.39971 22 48 07.59 +05 55 23.9 20.1 V 703 – Catalina Sky Survey MPS 252934
2008 08 28.88104 22 26 19.36 +07 16 27.6 19.4 V 198 – Wildberg MPS 254487
2008 08 28.90378 22 26 18.05 +07 16 27.2 19.5 V 198 – Wildberg MPS 254487
2008 08 28.91112 22 26 17.63 +07 16 27.1 19.4 V 198 – Wildberg MPS 254487
2008 08 28.91479 22 26 17.42 +07 16 27.1 19.3 V 198 – Wildberg MPS 254487
2008 08 28.91846 22 26 17.20 +07 16 27.0 19.3 V 198 – Wildberg MPS 254487
2008 08 28.92066 22 26 17.07 +07 16 27.1 19.2 V 198 – Wildberg MPS 254487
2008 08 30.84060 22 24 30.73 +07 15 31.7 19.0 V 198 – Wildberg MPS 255224
2008 08 30.84575 22 24 30.43 +07 15 31.5 19.0 V 198 – Wildberg MPS 255224
2008 08 30.85825 22 24 29.72 +07 15 31.0 18.9 V 198 – Wildberg MPS 255224
2008 08 30.86119 22 24 29.56 +07 15 30.6 19.1 V 198 – Wildberg MPS 255224
2008 08 30.86413 22 24 29.39 +07 15 30.5 19.1 V 198 – Wildberg MPS 255224
2008 08 30.86928 22 24 29.09 +07 15 30.3 19.1 V 198 – Wildberg MPS 255224
2008 08 30.88030 22 24 28.46 +07 15 30.0 19.0 V 198 – Wildberg MPS 255224
2008 09 21.29041 22 06 40.53 +06 25 49.0 19.4 V 703 – Catalina Sky Survey MPS 256699
2008 09 21.29743 22 06 40.24 +06 25 47.1 20.8 V 703 – Catalina Sky Survey MPS 256699
2008 09 21.30449 22 06 39.88 +06 25 47.4 19.9 V 703 – Catalina Sky Survey MPS 256699
2008 09 21.31152 22 06 39.67 +06 25 45.2 20.3 V 703 – Catalina Sky Survey MPS 256699
2008 09 30.16741 22 01 51.74 +05 53 16.5 19.7   704 – Lincoln Laboratory ETS, New Mexico MPS 257938
2008 09 30.17973 22 01 51.38 +05 53 13.7 20.2   704 – Lincoln Laboratory ETS, New Mexico MPS 257938
2008 09 30.19206 22 01 51.01 +05 53 11.4 19.8   704 – Lincoln Laboratory ETS, New Mexico MPS 257938
2008 09 30.20445 22 01 50.69 +05 53 07.8 19.7   704 – Lincoln Laboratory ETS, New Mexico MPS 257938
2008 09 30.21694 22 01 50.39 +05 53 05.4 19.8   704 – Lincoln Laboratory ETS, New Mexico MPS 257938
2008 10 01.15619 22 01 27.62 +05 49 34.6 19.8   704 – Lincoln Laboratory ETS, New Mexico MPS 257938
2008 10 01.16853 22 01 27.26 +05 49 32.7 20.2   704 – Lincoln Laboratory ETS, New Mexico MPS 257938
2008 10 01.18091 22 01 26.85 +05 49 30.1 20.7   704 – Lincoln Laboratory ETS, New Mexico MPS 257938
2008 10 01.19327 22 01 26.60 +05 49 25.9 20.3   704 – Lincoln Laboratory ETS, New Mexico MPS 257938
2008 10 01.20605 22 01 26.26 +05 49 23.3 20.2   704 – Lincoln Laboratory ETS, New Mexico MPS 257938
2009 11 21.44007 09 08 54.27 +15 11 13.6 21.4 V G96 – Mt. Lemmon Survey MPS 306516
2009 11 21.44817 09 08 54.38 +15 11 10.2 21.5 V G96 – Mt. Lemmon Survey MPS 306516
2009 11 21.45580 09 08 54.56 +15 11 08.5 20.7 V G96 – Mt. Lemmon Survey MPS 306516
2009 11 21.46341 09 08 54.74 +15 11 05.6 20.6 V G96 – Mt. Lemmon Survey MPS 306516
2010 01 08.28172 08 57 16.54 +12 10 43.2 20.0 V 691 – Steward Observatory, Kitt Peak-Spacewatch MPS 310066
2010 01 08.29945 08 57 15.59 +12 10 41.5 20.2 V 691 – Steward Observatory, Kitt Peak-Spacewatch MPS 310066
2010 01 08.31717 08 57 14.66 +12 10 40.2 20.1 V 691 – Steward Observatory, Kitt Peak-Spacewatch MPS 310066
2010 01 12.22159 08 53 47.26 +12 05 48.6   691 – Steward Observatory, Kitt Peak-Spacewatch MPS 311093
2010 01 12.23927 08 53 46.24 +12 05 47.7   691 – Steward Observatory, Kitt Peak-Spacewatch MPS 311093
2010 01 12.25698 08 53 45.26 +12 05 47.2   691 – Steward Observatory, Kitt Peak-Spacewatch MPS 311093
2010 01 16.24207 08 49 59.22 +12 02 12.6   691 – Steward Observatory, Kitt Peak-Spacewatch MPS 311093
2010 01 16.25974 08 49 58.11 +12 02 12.1   691 – Steward Observatory, Kitt Peak-Spacewatch MPS 311093
2010 01 16.27451 08 49 57.33 +12 02 12.0 19.5   704 – Lincoln Laboratory ETS, New Mexico MPS 311790
2010 01 16.27743 08 49 57.05 +12 02 10.6   691 – Steward Observatory, Kitt Peak-Spacewatch MPS 311093
2010 01 16.28920 08 49 56.47 +12 02 10.5 20.0   704 – Lincoln Laboratory ETS, New Mexico MPS 311790
2010 01 16.30170 08 49 55.69 +12 02 10.0 19.9   704 – Lincoln Laboratory ETS, New Mexico MPS 311790
2010 01 16.31415 08 49 54.99 +12 02 09.2 20.0   704 – Lincoln Laboratory ETS, New Mexico MPS 311790
2010 01 16.32662 08 49 54.22 +12 02 09.4 20.0   704 – Lincoln Laboratory ETS, New Mexico MPS 311790
2010 01 18.27569 08 47 59.56 +12 00 53.2 19.7   704 – Lincoln Laboratory ETS, New Mexico MPS 311790
2010 01 18.28820 08 47 58.91 +12 00 53.9 20.0   704 – Lincoln Laboratory ETS, New Mexico MPS 311791
2010 01 18.30072 08 47 57.99 +12 00 52.8 20.4   704 – Lincoln Laboratory ETS, New Mexico MPS 311791
2010 01 18.31326 08 47 57.29 +12 00 52.1 19.7   704 – Lincoln Laboratory ETS, New Mexico MPS 311791
2010 01 18.32581 08 47 56.53 +12 00 52.4 19.9   704 – Lincoln Laboratory ETS, New Mexico MPS 311791
2013 09 16.37379 02 21 53.84 +33 22 42.8 19.6 r I41 – Palomar Mountain--ZTF MPS 478486
2013 09 16.42163 02 21 53.70 +33 23 00.7 19.4 r I41 – Palomar Mountain--ZTF MPS 478486
2013 09 16.45407 02 21 53.61 +33 23 12.7 19.4 r I41 – Palomar Mountain--ZTF MPS 478486
